| DS18B20 | SHTC3 | ||||||
|---|---|---|---|---|---|---|---|
| ID | Date d/m/Y & Time | data1 สูง | data2 ต่ำ | data3 นอก | temp pcb | hum pcb | Time |
| 4138 | 20/03/2026 05:30:48 | 28.2  | 28.2  | 25.7  | 28.0  | 74.4  | 05:30 |
| 4137 | 20/03/2026 05:26:07 | 28.1  | 28.2  | 25.6  | 27.9  | 74.4  | 05:26 |
| 4136 | 20/03/2026 05:21:24 | 28.1  | 28.2  | 25.4  | 28.1  | 74.3  | 05:21 |
| 4135 | 20/03/2026 05:16:40 | 28.1  | 28.2  | 25.5  | 28.1  | 74.3  | 05:16 |
| 4134 | 20/03/2026 05:11:58 | 28.2  | 28.2  | 25.8  | 28.1  | 74.3  | 05:11 |
| 4133 | 20/03/2026 05:07:17 | 28.2  | 28.2  | 25.8  | 28.1  | 74.3  | 05:07 |
| 4132 | 20/03/2026 05:02:35 | 28.2  | 28.3  | 25.6  | 28.1  | 74.2  | 05:02 |
| 4131 | 20/03/2026 04:57:53 | 28.2  | 28.3  | 25.7  | 28.1  | 74.2  | 04:57 |
| 4130 | 20/03/2026 04:53:12 | 28.2  | 28.3  | 25.9  | 28.2  | 74.2  | 04:53 |
| 4129 | 20/03/2026 04:48:31 | 28.2  | 28.3  | 25.8  | 28.0  | 74.1  | 04:48 |
| 4128 | 20/03/2026 04:43:47 | 28.2  | 28.3  | 25.8  | 28.1  | 74.1  | 04:43 |
| 4127 | 20/03/2026 04:39:06 | 28.2  | 28.3  | 25.8  | 28.1  | 74.2  | 04:39 |
| 4126 | 20/03/2026 04:34:22 | 28.2  | 28.3  | 25.7  | 28.1  | 74.0  | 04:34 |
| 4125 | 20/03/2026 04:29:41 | 28.2  | 28.3  | 25.6  | 28.1  | 74.1  | 04:29 |
| 4124 | 20/03/2026 04:24:57 | 28.3  | 28.4  | 25.4  | 28.1  | 74.1  | 04:24 |
| 4123 | 20/03/2026 04:20:16 | 28.3  | 28.4  | 25.5  | 28.1  | 74.1  | 04:20 |
| 4122 | 20/03/2026 04:15:34 | 28.3  | 28.4  | 25.6  | 28.2  | 73.9  | 04:15 |
| 4121 | 20/03/2026 04:10:52 | 28.3  | 28.4  | 25.7  | 28.2  | 74.0  | 04:10 |
| 4120 | 20/03/2026 04:06:11 | 28.4  | 28.4  | 25.9  | 28.1  | 73.8  | 04:06 |
| 4119 | 20/03/2026 04:01:29 | 28.4  | 28.4  | 25.7  | 28.2  | 73.8  | 04:01 |
| 4118 | 20/03/2026 03:56:48 | 28.4  | 28.4  | 25.7  | 28.4  | 73.9  | 03:56 |
| 4117 | 20/03/2026 03:52:06 | 28.4  | 28.5  | 25.8  | 28.1  | 73.7  | 03:52 |
| 4116 | 20/03/2026 03:47:24 | 28.4  | 28.5  | 25.9  | 28.4  | 73.9  | 03:47 |
| 4115 | 20/03/2026 03:42:42 | 28.4  | 28.5  | 26.0  | 28.4  | 73.9  | 03:42 |